User: anonymous   Login
Location: *
(49.9853°N, 3.5569°E)
Time: 14:09:21
(UTC+00:00)
Language:

Cosmos 2082 Rocket - Orbit

View from above orbital plane
View from above orbital plane
View from above satellite
View from above satellite

Ground track
Ground track

The orbit data is extracted from the following two-line orbital elements,

1 20625U 90046B   19316.86032508 -.00000135 +00000-0 -45407-4 0  9991
2 20625 070.9983 104.9169 0015662 220.6179 139.3776 14.14651796521840
Epoch (UTC): 12 November 2019 20:38:52
Eccentricity: 0.0015662
inclination: 70.9983°
perigee height: 832 km
apogee height: 855 km
right ascension of ascending node: 104.9169°
argument of perigee: 220.6179°
revolutions per day: 14.14651796
mean anomaly at epoch: 139.3776°
orbit number at epoch: 52184

The dashed part of the orbit path shows where the satellite is in the earth's shadow,  

DLR